Year,Month,Day,Hour,Minute,Value (Times are PST for temperature in C)
2009,12,09,00,00,-6.10
2009,12,09,00,01,-6.10
2009,12,09,00,02,-6.10
2009,12,09,00,03,-6.10
2009,12,09,00,04,-6.10
2009,12,09,00,05,-6.10
2009,12,09,00,06,-6.10
2009,12,09,00,07,-6.10
2009,12,09,00,08,-6.10
2009,12,09,00,09,-6.10
2009,12,09,00,10,-6.10
2009,12,09,00,11,-6.10
2009,12,09,00,12,-6.00
2009,12,09,00,13,-5.90
2009,12,09,00,14,-5.90
2009,12,09,00,15,-5.90
2009,12,09,00,16,-5.90
2009,12,09,00,17,-5.80
2009,12,09,00,18,-5.80
2009,12,09,00,19,-5.70
2009,12,09,00,20,-5.70
2009,12,09,00,21,-5.70
2009,12,09,00,22,-5.70
2009,12,09,00,23,-5.60
2009,12,09,00,24,-5.60
2009,12,09,00,25,-5.60
2009,12,09,00,26,-5.60
2009,12,09,00,27,-5.60
2009,12,09,00,28,-5.70
2009,12,09,00,29,-5.70
2009,12,09,00,30,-5.70
2009,12,09,00,31,-5.70
2009,12,09,00,32,-5.70
2009,12,09,00,33,-5.70
2009,12,09,00,34,-5.70
2009,12,09,00,35,-5.70
2009,12,09,00,36,-5.70
2009,12,09,00,37,-5.70
2009,12,09,00,38,-5.70
2009,12,09,00,39,-5.70
2009,12,09,00,40,-5.70
2009,12,09,00,41,-5.60
2009,12,09,00,42,-5.60
2009,12,09,00,43,-5.60
2009,12,09,00,44,-5.60
2009,12,09,00,45,-5.50
2009,12,09,00,46,-5.50
2009,12,09,00,47,-5.50
2009,12,09,00,48,-5.50
2009,12,09,00,49,-5.50
2009,12,09,00,50,-5.50
2009,12,09,00,51,-5.40
2009,12,09,00,52,-5.40
2009,12,09,00,53,-5.40
2009,12,09,00,54,-5.40
2009,12,09,00,55,-5.40
2009,12,09,00,56,-5.40
2009,12,09,00,57,-5.40
2009,12,09,00,58,-5.40
2009,12,09,00,59,-5.30
2009,12,09,01,00,-5.30
2009,12,09,01,01,-5.30
2009,12,09,01,02,-5.30
2009,12,09,01,03,-5.30
2009,12,09,01,04,-5.30
2009,12,09,01,05,-5.30
2009,12,09,01,06,-5.30
2009,12,09,01,07,-5.40
2009,12,09,01,08,-5.40
2009,12,09,01,09,-5.40
2009,12,09,01,10,-5.40
2009,12,09,01,11,-5.40
2009,12,09,01,12,-5.40
2009,12,09,01,13,-5.40
2009,12,09,01,14,-5.40
2009,12,09,01,15,-5.50
2009,12,09,01,16,-5.50
2009,12,09,01,17,-5.50
2009,12,09,01,18,-5.50
2009,12,09,01,19,-5.50
2009,12,09,01,20,-5.50
2009,12,09,01,21,-5.40
2009,12,09,01,22,-5.40
2009,12,09,01,23,-5.40
2009,12,09,01,24,-5.30
2009,12,09,01,25,-5.30
2009,12,09,01,26,-5.30
2009,12,09,01,27,-5.30
2009,12,09,01,28,-5.30
2009,12,09,01,29,-5.30
2009,12,09,01,30,-5.30
2009,12,09,01,31,-5.30
2009,12,09,01,32,-5.30
2009,12,09,01,33,-5.30
2009,12,09,01,34,-5.30
2009,12,09,01,35,-5.30
2009,12,09,01,36,-5.30
2009,12,09,01,37,-5.30
2009,12,09,01,38,-5.30
2009,12,09,01,39,-5.30
2009,12,09,01,40,-5.30
2009,12,09,01,41,-5.30
2009,12,09,01,42,-5.30
2009,12,09,01,43,-5.30
2009,12,09,01,44,-5.30
2009,12,09,01,45,-5.40
2009,12,09,01,46,-5.40
2009,12,09,01,47,-5.40
2009,12,09,01,48,-5.40
2009,12,09,01,49,-5.40
2009,12,09,01,50,-5.40
2009,12,09,01,51,-5.40
2009,12,09,01,52,-5.50
2009,12,09,01,53,-5.50
2009,12,09,01,54,-5.50
2009,12,09,01,55,-5.50
2009,12,09,01,56,-5.50
2009,12,09,01,57,-5.50
2009,12,09,01,58,-5.50
2009,12,09,01,59,-5.60
2009,12,09,02,00,-5.60
2009,12,09,02,01,-5.60
2009,12,09,02,02,-5.60
2009,12,09,02,03,-5.60
2009,12,09,02,04,-5.60
2009,12,09,02,05,-5.60
2009,12,09,02,06,-5.60
2009,12,09,02,07,-5.60
2009,12,09,02,08,-5.60
2009,12,09,02,09,-5.70
2009,12,09,02,10,-5.70
2009,12,09,02,11,-5.70
2009,12,09,02,12,-5.70
2009,12,09,02,13,-5.70
2009,12,09,02,14,-5.80
2009,12,09,02,15,-5.80
2009,12,09,02,16,-5.80
2009,12,09,02,17,-5.80
2009,12,09,02,18,-5.90
2009,12,09,02,19,-5.90
2009,12,09,02,20,-5.90
2009,12,09,02,21,-5.90
2009,12,09,02,22,-5.90
2009,12,09,02,23,-6.00
2009,12,09,02,24,-6.10
2009,12,09,02,25,-6.10
2009,12,09,02,26,-6.10
2009,12,09,02,27,-6.10
2009,12,09,02,28,-6.20
2009,12,09,02,29,-6.20
2009,12,09,02,30,-6.30
2009,12,09,02,31,-6.30
2009,12,09,02,32,-6.30
2009,12,09,02,33,-6.30
2009,12,09,02,34,-6.30
2009,12,09,02,35,-6.40
2009,12,09,02,36,-6.40
2009,12,09,02,37,-6.40
2009,12,09,02,38,-6.40
2009,12,09,02,39,-6.40
2009,12,09,02,40,-6.40
2009,12,09,02,41,-6.40
2009,12,09,02,42,-6.50
2009,12,09,02,43,-6.50
2009,12,09,02,44,-6.50
2009,12,09,02,45,-6.50
2009,12,09,02,46,-6.50
2009,12,09,02,47,-6.50
2009,12,09,02,48,-6.50
2009,12,09,02,49,-6.40
2009,12,09,02,50,-6.40
2009,12,09,02,51,-6.40
2009,12,09,02,52,-6.40
2009,12,09,02,53,-6.40
2009,12,09,02,54,-6.40
2009,12,09,02,55,-6.40
2009,12,09,02,56,-6.40
2009,12,09,02,57,-6.40
2009,12,09,02,58,-6.40
2009,12,09,02,59,-6.40
2009,12,09,03,00,-6.40
2009,12,09,03,01,-6.40
2009,12,09,03,02,-6.50
2009,12,09,03,03,-6.50
2009,12,09,03,04,-6.50
2009,12,09,03,05,-6.50
2009,12,09,03,06,-6.60
2009,12,09,03,07,-6.60
2009,12,09,03,08,-6.60
2009,12,09,03,09,-6.60
2009,12,09,03,10,-6.70
2009,12,09,03,11,-6.70
2009,12,09,03,12,-6.70
2009,12,09,03,13,-6.70
2009,12,09,03,14,-6.60
2009,12,09,03,15,-6.60
2009,12,09,03,16,-6.60
2009,12,09,03,17,-6.60
2009,12,09,03,18,-6.70
2009,12,09,03,19,-6.70
2009,12,09,03,20,-6.70
2009,12,09,03,21,-6.70
2009,12,09,03,22,-6.70
2009,12,09,03,23,-6.70
2009,12,09,03,24,-6.70
2009,12,09,03,25,-6.70
2009,12,09,03,26,-6.70
2009,12,09,03,27,-6.70
2009,12,09,03,28,-6.70
2009,12,09,03,29,-6.70
2009,12,09,03,30,-6.80
2009,12,09,03,31,-6.80
2009,12,09,03,32,-6.80
2009,12,09,03,33,-6.80
2009,12,09,03,34,-6.80
2009,12,09,03,35,-6.80
2009,12,09,03,36,-6.80
2009,12,09,03,37,-6.70
2009,12,09,03,38,-6.70
2009,12,09,03,39,-6.70
2009,12,09,03,40,-6.70
2009,12,09,03,41,-6.60
2009,12,09,03,42,-6.50
2009,12,09,03,43,-6.50
2009,12,09,03,44,-6.50
2009,12,09,03,45,-6.40
2009,12,09,03,46,-6.40
2009,12,09,03,47,-6.40
2009,12,09,03,48,-6.40
2009,12,09,03,49,-6.40
2009,12,09,03,50,-6.50
2009,12,09,03,51,-6.50
2009,12,09,03,52,-6.50
2009,12,09,03,53,-6.50
2009,12,09,03,54,-6.50
2009,12,09,03,55,-6.50
2009,12,09,03,56,-6.60
2009,12,09,03,57,-6.60
2009,12,09,03,58,-6.60
2009,12,09,03,59,-6.60
2009,12,09,04,00,-6.60
2009,12,09,04,01,-6.60
2009,12,09,04,02,-6.50
2009,12,09,04,03,-6.50
2009,12,09,04,04,-6.50
2009,12,09,04,05,-6.50
2009,12,09,04,06,-6.60
2009,12,09,04,07,-6.70
2009,12,09,04,08,-6.70
2009,12,09,04,09,-6.60
2009,12,09,04,10,-6.40
2009,12,09,04,11,-6.40
2009,12,09,04,12,-6.30
2009,12,09,04,13,-6.10
2009,12,09,04,14,-5.90
2009,12,09,04,15,-5.70
2009,12,09,04,16,-5.60
2009,12,09,04,17,-5.60
2009,12,09,04,18,-5.60
2009,12,09,04,19,-5.60
2009,12,09,04,20,-5.70
2009,12,09,04,21,-5.80
2009,12,09,04,22,-5.80
2009,12,09,04,23,-5.90
2009,12,09,04,24,-5.90
2009,12,09,04,25,-6.00
2009,12,09,04,26,-6.10
2009,12,09,04,27,-6.20
2009,12,09,04,28,-6.30
2009,12,09,04,29,-6.30
2009,12,09,04,30,-6.30
2009,12,09,04,31,-6.20
2009,12,09,04,32,-6.20
2009,12,09,04,33,-6.10
2009,12,09,04,34,-6.00
2009,12,09,04,35,-5.90
2009,12,09,04,36,-5.90
2009,12,09,04,37,-5.90
2009,12,09,04,38,-5.90
2009,12,09,04,39,-6.00
2009,12,09,04,40,-6.10
2009,12,09,04,41,-6.10
2009,12,09,04,42,-6.10
2009,12,09,04,43,-6.10
2009,12,09,04,44,-6.10
2009,12,09,04,45,-6.10
2009,12,09,04,46,-6.10
2009,12,09,04,47,-6.10
2009,12,09,04,48,-6.10
2009,12,09,04,49,-6.10
2009,12,09,04,50,-6.10
2009,12,09,04,51,-6.10
2009,12,09,04,52,-6.10
2009,12,09,04,53,-6.10
2009,12,09,04,54,-6.20
2009,12,09,04,55,-6.20
2009,12,09,04,56,-6.20
2009,12,09,04,57,-6.20
2009,12,09,04,58,-6.30
2009,12,09,04,59,-6.30
2009,12,09,05,00,-6.30
2009,12,09,05,01,-6.40
2009,12,09,05,02,-6.40
2009,12,09,05,03,-6.40
2009,12,09,05,04,-6.50
2009,12,09,05,05,-6.50
2009,12,09,05,06,-6.60
2009,12,09,05,07,-6.60
2009,12,09,05,08,-6.70
2009,12,09,05,09,-6.70
2009,12,09,05,10,-6.70
2009,12,09,05,11,-6.70
2009,12,09,05,12,-6.70
2009,12,09,05,13,-6.70
2009,12,09,05,14,-6.80
2009,12,09,05,15,-6.80
2009,12,09,05,16,-6.80
2009,12,09,05,17,-6.80
2009,12,09,05,18,-6.90
2009,12,09,05,19,-6.90
2009,12,09,05,20,-6.90
2009,12,09,05,21,-6.90
2009,12,09,05,22,-6.90
2009,12,09,05,23,-6.90
2009,12,09,05,24,-7.00
2009,12,09,05,25,-7.00
2009,12,09,05,26,-7.00
2009,12,09,05,27,-7.00
2009,12,09,05,28,-7.00
2009,12,09,05,29,-7.00
2009,12,09,05,30,-7.00
2009,12,09,05,31,-7.10
2009,12,09,05,32,-7.10
2009,12,09,05,33,-7.10
2009,12,09,05,34,-7.20
2009,12,09,05,35,-7.20
2009,12,09,05,36,-7.20
2009,12,09,05,37,-7.20
2009,12,09,05,38,-7.20
2009,12,09,05,39,-7.20
2009,12,09,05,40,-7.20
2009,12,09,05,41,-7.20
2009,12,09,05,42,-7.10
2009,12,09,05,43,-7.10
2009,12,09,05,44,-7.10
2009,12,09,05,45,-7.10
2009,12,09,05,46,-7.10
2009,12,09,05,47,-7.10
2009,12,09,05,48,-7.10
2009,12,09,05,49,-7.10
2009,12,09,05,50,-7.10
2009,12,09,05,51,-7.10
2009,12,09,05,52,-7.10
2009,12,09,05,53,-7.10
2009,12,09,05,54,-7.10
2009,12,09,05,55,-7.10
2009,12,09,05,56,-7.10
2009,12,09,05,57,-7.10
2009,12,09,05,58,-7.10
2009,12,09,05,59,-7.00
2009,12,09,06,00,-7.00
2009,12,09,06,01,-6.90
2009,12,09,06,02,-6.80
2009,12,09,06,03,-6.70
2009,12,09,06,04,-6.60
2009,12,09,06,05,-6.50
2009,12,09,06,06,-6.40
2009,12,09,06,07,-6.30
2009,12,09,06,08,-6.20
2009,12,09,06,09,-6.10
2009,12,09,06,10,-6.00
2009,12,09,06,11,-6.00
2009,12,09,06,12,-6.10
2009,12,09,06,13,-6.10
2009,12,09,06,14,-6.10
2009,12,09,06,15,-6.10
2009,12,09,06,16,-6.10
2009,12,09,06,17,-6.20
2009,12,09,06,18,-6.20
2009,12,09,06,19,-6.20
2009,12,09,06,20,-6.30
2009,12,09,06,21,-6.30
2009,12,09,06,22,-6.20
2009,12,09,06,23,-6.10
2009,12,09,06,24,-6.10
2009,12,09,06,25,-6.00
2009,12,09,06,26,-5.90
2009,12,09,06,27,-5.90
2009,12,09,06,28,-5.90
2009,12,09,06,29,-6.10
2009,12,09,06,30,-6.10
2009,12,09,06,31,-6.00
2009,12,09,06,32,-5.90
2009,12,09,06,33,-5.90
2009,12,09,06,34,-5.90
2009,12,09,06,35,-5.80
2009,12,09,06,36,-5.70
2009,12,09,06,37,-5.60
2009,12,09,06,38,-5.50
2009,12,09,06,39,-5.40
2009,12,09,06,40,-5.30
2009,12,09,06,41,-5.30
2009,12,09,06,42,-5.30
2009,12,09,06,43,-5.40
2009,12,09,06,44,-5.50
2009,12,09,06,45,-5.60
2009,12,09,06,46,-5.60
2009,12,09,06,47,-5.60
2009,12,09,06,48,-5.60
2009,12,09,06,49,-5.50
2009,12,09,06,50,-5.50
2009,12,09,06,51,-5.40
2009,12,09,06,52,-5.30
2009,12,09,06,53,-5.20
2009,12,09,06,54,-5.10
2009,12,09,06,55,-5.00
2009,12,09,06,56,-4.90
2009,12,09,06,57,-4.80
2009,12,09,06,58,-4.70
2009,12,09,06,59,-4.70
2009,12,09,07,00,-4.70
2009,12,09,07,01,-4.80
2009,12,09,07,02,-4.90
2009,12,09,07,03,-4.90
2009,12,09,07,04,-4.80
2009,12,09,07,05,-4.90
2009,12,09,07,06,-4.90
2009,12,09,07,07,-4.90
2009,12,09,07,08,-5.00
2009,12,09,07,09,-5.00
2009,12,09,07,10,-5.00
2009,12,09,07,11,-4.90
2009,12,09,07,12,-4.90
2009,12,09,07,13,-4.90
2009,12,09,07,14,-4.80
2009,12,09,07,15,-4.80
2009,12,09,07,16,-4.80
2009,12,09,07,17,-4.80
2009,12,09,07,18,-4.80
2009,12,09,07,19,-4.80
2009,12,09,07,20,-4.70
2009,12,09,07,21,-4.80
2009,12,09,07,22,-4.80
2009,12,09,07,23,-4.80
2009,12,09,07,24,-4.70
2009,12,09,07,25,-4.60
2009,12,09,07,26,-4.60
2009,12,09,07,27,-4.60
2009,12,09,07,28,-4.60
2009,12,09,07,29,-4.60
2009,12,09,07,30,-4.70
2009,12,09,07,31,-4.70
2009,12,09,07,32,-4.70
2009,12,09,07,33,-4.70
2009,12,09,07,34,-4.80
2009,12,09,07,35,-4.80
2009,12,09,07,36,-4.80
2009,12,09,07,37,-4.80
2009,12,09,07,38,-4.70
2009,12,09,07,39,-4.70
2009,12,09,07,40,-4.70
2009,12,09,07,41,-4.70
2009,12,09,07,42,-4.70
2009,12,09,07,43,-4.70
2009,12,09,07,44,-4.70
2009,12,09,07,45,-4.70
2009,12,09,07,46,-4.70
2009,12,09,07,47,-4.70
2009,12,09,07,48,-4.70
2009,12,09,07,49,-4.70
2009,12,09,07,50,-4.70
2009,12,09,07,51,-4.70
2009,12,09,07,52,-4.70
2009,12,09,07,53,-4.70
2009,12,09,07,54,-4.70
2009,12,09,07,55,-4.70
2009,12,09,07,56,-4.70
2009,12,09,07,57,-4.70
2009,12,09,07,58,-4.50
2009,12,09,07,59,-4.40
2009,12,09,08,00,-4.30
2009,12,09,08,01,-4.20
2009,12,09,08,02,-4.20
2009,12,09,08,03,-4.20
2009,12,09,08,04,-4.10
2009,12,09,08,05,-4.10
2009,12,09,08,06,-4.10
2009,12,09,08,07,-4.10
2009,12,09,08,08,-4.00
2009,12,09,08,09,-3.90
2009,12,09,08,10,-3.90
2009,12,09,08,11,-3.80
2009,12,09,08,12,-3.70
2009,12,09,08,13,-3.70
2009,12,09,08,14,-3.70
2009,12,09,08,15,-3.60
2009,12,09,08,16,-3.50
2009,12,09,08,17,-3.50
2009,12,09,08,18,-3.40
2009,12,09,08,19,-3.30
2009,12,09,08,20,-3.30
2009,12,09,08,21,-3.30
2009,12,09,08,22,-3.20
2009,12,09,08,23,-3.20
2009,12,09,08,24,-3.10
2009,12,09,08,25,-3.00
2009,12,09,08,26,-3.00
2009,12,09,08,27,-2.90
2009,12,09,08,28,-2.90
2009,12,09,08,29,-2.80
2009,12,09,08,30,-2.80
2009,12,09,08,31,-2.70
2009,12,09,08,32,-2.70
2009,12,09,08,33,-2.60
2009,12,09,08,34,-2.50
2009,12,09,08,35,-2.50
2009,12,09,08,36,-2.50
2009,12,09,08,37,-2.40
2009,12,09,08,38,-2.40
2009,12,09,08,39,-2.30
2009,12,09,08,40,-2.30
2009,12,09,08,41,-2.30
2009,12,09,08,42,-2.30
2009,12,09,08,43,-2.20
2009,12,09,08,44,-2.10
2009,12,09,08,45,-2.10
2009,12,09,08,46,-2.00
2009,12,09,08,47,-1.90
2009,12,09,08,48,-1.80
2009,12,09,08,49,-1.70
2009,12,09,08,50,-1.60
2009,12,09,08,51,-1.50
2009,12,09,08,52,-1.40
2009,12,09,08,53,-1.40
2009,12,09,08,54,-1.20
2009,12,09,08,55,-1.10
2009,12,09,08,56,-1.00
2009,12,09,08,57,-0.90
2009,12,09,08,58,-0.80
2009,12,09,08,59,-0.80
2009,12,09,09,00,-0.70
2009,12,09,09,01,-0.70
2009,12,09,09,02,-0.60
2009,12,09,09,03,-0.60
2009,12,09,09,04,-0.60
2009,12,09,09,05,-0.60
2009,12,09,09,06,-0.60
2009,12,09,09,07,-0.40
2009,12,09,09,08,-0.40
2009,12,09,09,09,-0.40
2009,12,09,09,10,-0.40
2009,12,09,09,11,-0.40
2009,12,09,09,12,-0.40
2009,12,09,09,13,-0.40
2009,12,09,09,14,-0.40
2009,12,09,09,15,-0.40
2009,12,09,09,16,-0.40
2009,12,09,09,17,-0.40
2009,12,09,09,18,-0.40
2009,12,09,09,19,-0.40
2009,12,09,09,20,-0.40
2009,12,09,09,21,-0.30
2009,12,09,09,22,-0.30
2009,12,09,09,23,-0.30
2009,12,09,09,24,-0.30
2009,12,09,09,25,-0.40
2009,12,09,09,26,-0.40
2009,12,09,09,27,-0.40
2009,12,09,09,28,-0.40
2009,12,09,09,29,-0.40
2009,12,09,09,30,-0.40
2009,12,09,09,31,-0.40
2009,12,09,09,32,-0.40
2009,12,09,09,33,-0.40
2009,12,09,09,34,-0.40
2009,12,09,09,35,-0.40
2009,12,09,09,36,-0.40
2009,12,09,09,37,-0.40
2009,12,09,09,38,-0.40
2009,12,09,09,39,-0.40
2009,12,09,09,40,-0.40
2009,12,09,09,41,-0.40
2009,12,09,09,42,-0.40
2009,12,09,09,43,-0.40
2009,12,09,09,44,-0.40
2009,12,09,09,45,-0.40
2009,12,09,09,46,-0.30
2009,12,09,09,47,-0.40
2009,12,09,09,48,-0.40
2009,12,09,09,49,-0.40
2009,12,09,09,50,-0.40
2009,12,09,09,51,-0.40
2009,12,09,09,52,-0.40
2009,12,09,09,53,-0.40
2009,12,09,09,54,-0.40
2009,12,09,09,55,-0.40
2009,12,09,09,56,-0.30
2009,12,09,09,57,-0.30
2009,12,09,09,58,-0.30
2009,12,09,09,59,-0.30
2009,12,09,10,00,-0.20
2009,12,09,10,01,-0.20
2009,12,09,10,02,-0.10
2009,12,09,10,03,-0.10
2009,12,09,10,04,-0.10
2009,12,09,10,05,-0.10
2009,12,09,10,06,-0.10
2009,12,09,10,07,-0.10
2009,12,09,10,08,-0.10
2009,12,09,10,09,-0.10
2009,12,09,10,10,-0.10
2009,12,09,10,11,-0.10
2009,12,09,10,12,-0.10
2009,12,09,10,13,-0.10
2009,12,09,10,14,-0.10
2009,12,09,10,15,-0.10
2009,12,09,10,16,-0.10
2009,12,09,10,17,-0.10
2009,12,09,10,18,-0.10
2009,12,09,10,19,-0.10
2009,12,09,10,20,-0.10
2009,12,09,10,21,-0.10
2009,12,09,10,22,-0.10
2009,12,09,10,23,-0.10
2009,12,09,10,24,-0.10
2009,12,09,10,25,0.00
2009,12,09,10,26,0.00
2009,12,09,10,27,-0.10
2009,12,09,10,28,-0.10
2009,12,09,10,29,0.00
2009,12,09,10,30,0.10
2009,12,09,10,31,0.10
2009,12,09,10,32,0.10
2009,12,09,10,33,0.10
2009,12,09,10,34,0.10
2009,12,09,10,35,0.10
2009,12,09,10,36,0.00
2009,12,09,10,37,-0.10
2009,12,09,10,38,-0.10
2009,12,09,10,39,-0.10
2009,12,09,10,40,-0.10
2009,12,09,10,41,-0.10
2009,12,09,10,42,-0.10
2009,12,09,10,43,-0.10
2009,12,09,10,44,-0.10
2009,12,09,10,45,-0.10
2009,12,09,10,46,-0.10
2009,12,09,10,47,-0.10
2009,12,09,10,48,-0.10
2009,12,09,10,49,-0.10
2009,12,09,10,50,-0.10
2009,12,09,10,51,-0.10
2009,12,09,10,52,-0.10
2009,12,09,10,53,-0.10
2009,12,09,10,54,-0.10
2009,12,09,10,55,-0.10
2009,12,09,10,56,-0.10
2009,12,09,10,57,-0.10
2009,12,09,10,58,0.00
2009,12,09,10,59,0.10
2009,12,09,11,00,0.10
2009,12,09,11,01,0.10
2009,12,09,11,02,0.10
2009,12,09,11,03,0.10
2009,12,09,11,04,0.10
2009,12,09,11,05,0.10
2009,12,09,11,06,0.10
2009,12,09,11,07,0.10
2009,12,09,11,08,0.10
2009,12,09,11,09,0.10
2009,12,09,11,10,0.10
2009,12,09,11,11,0.10
2009,12,09,11,12,0.10
2009,12,09,11,13,0.10
2009,12,09,11,14,0.10
2009,12,09,11,15,0.10
2009,12,09,11,16,0.10
2009,12,09,11,17,0.10
2009,12,09,11,18,0.10
2009,12,09,11,19,0.10
2009,12,09,11,20,0.10
2009,12,09,11,21,0.10
2009,12,09,11,22,0.00
2009,12,09,11,23,-0.10
2009,12,09,11,24,-0.10
2009,12,09,11,25,-0.10
2009,12,09,11,26,-0.10
2009,12,09,11,27,-0.10
2009,12,09,11,28,-0.10
2009,12,09,11,29,-0.10
2009,12,09,11,30,-0.10
2009,12,09,11,31,0.00
2009,12,09,11,32,0.00
2009,12,09,11,33,-0.10
2009,12,09,11,34,-0.10
2009,12,09,11,35,-0.10
2009,12,09,11,36,-0.10
2009,12,09,11,37,0.00
2009,12,09,11,38,0.10
2009,12,09,11,39,-0.10
2009,12,09,11,40,-0.10
2009,12,09,11,41,0.00
2009,12,09,11,42,0.10
2009,12,09,11,43,0.10
2009,12,09,11,44,0.10
2009,12,09,11,45,0.10
2009,12,09,11,46,0.20
2009,12,09,11,47,0.20
2009,12,09,11,48,0.30
2009,12,09,11,49,0.40
2009,12,09,11,50,0.40
2009,12,09,11,51,0.40
2009,12,09,11,52,0.40
2009,12,09,11,53,0.40
2009,12,09,11,54,0.30
2009,12,09,11,55,0.30
2009,12,09,11,56,0.20
2009,12,09,11,57,0.20
2009,12,09,11,58,0.10
2009,12,09,11,59,0.10
2009,12,09,12,00,0.10
2009,12,09,12,01,0.10
2009,12,09,12,02,0.10
2009,12,09,12,03,0.10
2009,12,09,12,04,0.10
2009,12,09,12,05,0.10
2009,12,09,12,06,0.10
2009,12,09,12,07,0.10
2009,12,09,12,08,0.10
2009,12,09,12,09,0.10
2009,12,09,12,10,0.10
2009,12,09,12,11,0.10
2009,12,09,12,12,0.10
2009,12,09,12,13,0.20
2009,12,09,12,14,0.20
2009,12,09,12,15,0.20
2009,12,09,12,16,0.20
2009,12,09,12,17,0.20
2009,12,09,12,18,0.20
2009,12,09,12,19,0.20
2009,12,09,12,20,0.20
2009,12,09,12,21,0.20
2009,12,09,12,22,0.30
2009,12,09,12,23,0.40
2009,12,09,12,24,0.40
2009,12,09,12,25,0.40
2009,12,09,12,26,0.50
2009,12,09,12,27,0.50
2009,12,09,12,28,0.60
2009,12,09,12,29,0.60
2009,12,09,12,30,0.60
2009,12,09,12,31,0.70
2009,12,09,12,32,0.70
2009,12,09,12,33,0.60
2009,12,09,12,34,0.60
2009,12,09,12,35,0.60
2009,12,09,12,36,0.50
2009,12,09,12,37,0.50
2009,12,09,12,38,0.50
2009,12,09,12,39,0.50
2009,12,09,12,40,0.60
2009,12,09,12,41,0.60
2009,12,09,12,42,0.60
2009,12,09,12,43,0.70
2009,12,09,12,44,0.80
2009,12,09,12,45,0.80
2009,12,09,12,46,0.80
2009,12,09,12,47,0.90
2009,12,09,12,48,1.10
2009,12,09,12,49,1.20
2009,12,09,12,50,1.40
2009,12,09,12,51,1.50
2009,12,09,12,52,1.70
2009,12,09,12,53,1.80
2009,12,09,12,54,1.80
2009,12,09,12,55,1.80
2009,12,09,12,56,1.70
2009,12,09,12,57,1.60
2009,12,09,12,58,1.60
2009,12,09,12,59,1.50
2009,12,09,13,00,1.40
2009,12,09,13,01,1.30
2009,12,09,13,02,1.30
2009,12,09,13,03,1.20
2009,12,09,13,04,1.20
2009,12,09,13,05,1.10
2009,12,09,13,06,1.10
2009,12,09,13,07,1.00
2009,12,09,13,08,1.00
2009,12,09,13,09,1.00
2009,12,09,13,10,1.00
2009,12,09,13,11,0.90
2009,12,09,13,12,0.90
2009,12,09,13,13,0.90
2009,12,09,13,14,0.90
2009,12,09,13,15,0.90
2009,12,09,13,16,1.10
2009,12,09,13,17,1.20
2009,12,09,13,18,1.30
2009,12,09,13,19,1.30
2009,12,09,13,20,1.40
2009,12,09,13,21,1.50
2009,12,09,13,22,1.60
2009,12,09,13,23,1.70
2009,12,09,13,24,1.70
2009,12,09,13,25,1.80
2009,12,09,13,26,1.80
2009,12,09,13,27,1.80
2009,12,09,13,28,1.90
2009,12,09,13,29,1.90
2009,12,09,13,30,1.90
2009,12,09,13,31,1.90
2009,12,09,13,32,1.80
2009,12,09,13,33,1.80
2009,12,09,13,34,1.80
2009,12,09,13,35,1.80
2009,12,09,13,36,1.80
2009,12,09,13,37,1.80
2009,12,09,13,38,1.70
2009,12,09,13,39,1.60
2009,12,09,13,40,1.50
2009,12,09,13,41,1.50
2009,12,09,13,42,1.40
2009,12,09,13,43,1.30
2009,12,09,13,44,1.30
2009,12,09,13,45,1.30
2009,12,09,13,46,1.30
2009,12,09,13,47,1.40
2009,12,09,13,48,1.40
2009,12,09,13,49,1.50
2009,12,09,13,50,1.50
2009,12,09,13,51,1.60
2009,12,09,13,52,1.60
2009,12,09,13,53,1.60
2009,12,09,13,54,1.60
2009,12,09,13,55,1.60
2009,12,09,13,56,1.70
2009,12,09,13,57,1.70
2009,12,09,13,58,1.80
2009,12,09,13,59,1.80
2009,12,09,14,00,1.80
2009,12,09,14,01,1.80
2009,12,09,14,02,1.70
2009,12,09,14,03,1.70
2009,12,09,14,04,1.80
2009,12,09,14,05,1.80
2009,12,09,14,06,1.90
2009,12,09,14,07,1.90
2009,12,09,14,08,2.00
2009,12,09,14,09,2.10
2009,12,09,14,10,2.10
2009,12,09,14,11,2.20
2009,12,09,14,12,2.20
2009,12,09,14,13,2.20
2009,12,09,14,14,2.30
2009,12,09,14,15,2.30
2009,12,09,14,16,2.40
2009,12,09,14,17,2.50
2009,12,09,14,18,2.50
2009,12,09,14,19,2.50
2009,12,09,14,20,2.50
2009,12,09,14,21,2.60
2009,12,09,14,22,2.70
2009,12,09,14,23,2.80
2009,12,09,14,24,2.90
2009,12,09,14,25,2.80
2009,12,09,14,26,2.70
2009,12,09,14,27,2.70
2009,12,09,14,28,2.60
2009,12,09,14,29,2.50
2009,12,09,14,30,2.40
2009,12,09,14,31,2.40
2009,12,09,14,32,2.40
2009,12,09,14,33,2.40
2009,12,09,14,34,2.40
2009,12,09,14,35,2.50
2009,12,09,14,36,2.50
2009,12,09,14,37,2.60
2009,12,09,14,38,2.60
2009,12,09,14,39,2.60
2009,12,09,14,40,2.60
2009,12,09,14,41,2.50
2009,12,09,14,42,2.30
2009,12,09,14,43,2.20
2009,12,09,14,44,2.10
2009,12,09,14,45,2.20
2009,12,09,14,46,2.20
2009,12,09,14,47,2.30
2009,12,09,14,48,2.30
2009,12,09,14,49,2.30
2009,12,09,14,50,2.30
2009,12,09,14,51,2.20
2009,12,09,14,52,2.30
2009,12,09,14,53,2.30
2009,12,09,14,54,2.30
2009,12,09,14,55,2.40
2009,12,09,14,56,2.50
2009,12,09,14,57,2.50
2009,12,09,14,58,2.50
2009,12,09,14,59,2.60
2009,12,09,15,00,2.60
2009,12,09,15,01,2.50
2009,12,09,15,02,2.50
2009,12,09,15,03,2.60
2009,12,09,15,04,2.70
2009,12,09,15,05,2.80
2009,12,09,15,06,2.80
2009,12,09,15,07,2.80
2009,12,09,15,08,2.80
2009,12,09,15,09,2.80
2009,12,09,15,10,2.80
2009,12,09,15,11,2.80
2009,12,09,15,12,2.80
2009,12,09,15,13,2.70
2009,12,09,15,14,2.70
2009,12,09,15,15,2.80
2009,12,09,15,16,2.80
2009,12,09,15,17,2.80
2009,12,09,15,18,2.80
2009,12,09,15,19,2.90
2009,12,09,15,20,2.90
2009,12,09,15,21,2.80
2009,12,09,15,22,2.80
2009,12,09,15,23,2.80
2009,12,09,15,24,2.90
2009,12,09,15,25,2.90
2009,12,09,15,26,2.90
2009,12,09,15,27,2.90
2009,12,09,15,28,2.90
2009,12,09,15,29,2.90
2009,12,09,15,30,2.90
2009,12,09,15,31,3.00
2009,12,09,15,32,3.10
2009,12,09,15,33,3.10
2009,12,09,15,34,3.10
2009,12,09,15,35,3.10
2009,12,09,15,36,3.10
2009,12,09,15,37,3.20
2009,12,09,15,38,3.10
2009,12,09,15,39,3.10
2009,12,09,15,40,3.00
2009,12,09,15,41,2.90
2009,12,09,15,42,2.80
2009,12,09,15,43,2.80
2009,12,09,15,44,2.80
2009,12,09,15,45,2.90
2009,12,09,15,46,2.90
2009,12,09,15,47,2.80
2009,12,09,15,48,2.90
2009,12,09,15,49,2.90
2009,12,09,15,50,3.00
2009,12,09,15,51,3.10
2009,12,09,15,52,3.10
2009,12,09,15,53,3.10
2009,12,09,15,54,3.20
2009,12,09,15,55,3.10
2009,12,09,15,56,3.10
2009,12,09,15,57,3.10
2009,12,09,15,58,2.90
2009,12,09,15,59,2.80
2009,12,09,16,00,2.80
2009,12,09,16,01,2.70
2009,12,09,16,02,2.70
2009,12,09,16,03,2.80
2009,12,09,16,04,2.80
2009,12,09,16,05,2.80
2009,12,09,16,06,2.80
2009,12,09,16,07,2.90
2009,12,09,16,08,2.90
2009,12,09,16,09,2.90
2009,12,09,16,10,2.90
2009,12,09,16,11,2.90
2009,12,09,16,12,2.80
2009,12,09,16,13,2.70
2009,12,09,16,14,2.50
2009,12,09,16,15,2.40
2009,12,09,16,16,2.30
2009,12,09,16,17,2.20
2009,12,09,16,18,2.10
2009,12,09,16,19,1.90
2009,12,09,16,20,1.70
2009,12,09,16,21,1.50
2009,12,09,16,22,1.30
2009,12,09,16,23,1.10
2009,12,09,16,24,1.00
2009,12,09,16,25,0.80
2009,12,09,16,26,0.70
2009,12,09,16,27,0.50
2009,12,09,16,28,0.40
2009,12,09,16,29,0.30
2009,12,09,16,30,0.20
2009,12,09,16,31,0.10
2009,12,09,16,32,0.00
2009,12,09,16,33,-0.10
2009,12,09,16,34,-0.20
2009,12,09,16,35,-0.20
2009,12,09,16,36,-0.30
2009,12,09,16,37,-0.40
2009,12,09,16,38,-0.50
2009,12,09,16,39,-0.70
2009,12,09,16,40,-0.80
2009,12,09,16,41,-0.90
2009,12,09,16,42,-0.90
2009,12,09,16,43,-1.00
2009,12,09,16,44,-1.10
2009,12,09,16,45,-1.10
2009,12,09,16,46,-1.20
2009,12,09,16,47,-1.20
2009,12,09,16,48,-1.30
2009,12,09,16,49,-1.40
2009,12,09,16,50,-1.40
2009,12,09,16,51,-1.50
2009,12,09,16,52,-1.60
2009,12,09,16,53,-1.60
2009,12,09,16,54,-1.70
2009,12,09,16,55,-1.70
2009,12,09,16,56,-1.80
2009,12,09,16,57,-1.80
2009,12,09,16,58,-1.80
2009,12,09,16,59,-1.80
2009,12,09,17,00,-1.80
2009,12,09,17,01,-1.80
2009,12,09,17,02,-1.90
2009,12,09,17,03,-1.90
2009,12,09,17,04,-1.90
2009,12,09,17,05,-1.90
2009,12,09,17,06,-2.00
2009,12,09,17,07,-2.00
2009,12,09,17,08,-2.00
2009,12,09,17,09,-2.00
2009,12,09,17,10,-2.00
2009,12,09,17,11,-2.00
2009,12,09,17,12,-2.00
2009,12,09,17,13,-2.00
2009,12,09,17,14,-2.00
2009,12,09,17,15,-2.00
2009,12,09,17,16,-2.10
2009,12,09,17,17,-2.10
2009,12,09,17,18,-2.10
2009,12,09,17,19,-2.20
2009,12,09,17,20,-2.20
2009,12,09,17,21,-2.20
2009,12,09,17,22,-2.30
2009,12,09,17,23,-2.30
2009,12,09,17,24,-2.30
2009,12,09,17,25,-2.30
2009,12,09,17,26,-2.30
2009,12,09,17,27,-2.30
2009,12,09,17,28,-2.30
2009,12,09,17,29,-2.20
2009,12,09,17,30,-2.20
2009,12,09,17,31,-2.20
2009,12,09,17,32,-2.20
2009,12,09,17,33,-2.30